This is the latest recevied weather packets stored in our database for station/object KD5BIG-13. If no packets are shown the sender has not sent any weather packets the latest 10 day(s).
| Time | Temp. | Humidity | Pressure | Rain* | Wind** | Luminosity | Snow |
|---|---|---|---|---|---|---|---|
| 1777903844 | 17.78° C | 79% | 1021.8 hPa | 0 mm | - | 1063 W/m² | - |
| 1777903540 | 17.22° C | 86% | 1021.7 hPa | 0 mm | - | 773 W/m² | - |
| 1777903237 | 16.67° C | 92% | 1021.7 hPa | 0 mm | - | 497 W/m² | - |
| 1777902933 | 15.56° C | 99% | 1021.9 hPa | 0 mm | - | 356 W/m² | - |
| 1777902630 | 15.56° C | 99% | 1021.7 hPa | 0 mm | - | 279 W/m² | - |
| 1777902327 | 15° C | 99% | 1021.7 hPa | 0 mm | - | 232 W/m² | - |
| 1777902024 | 15° C | 99% | 1021.8 hPa | 0 mm | - | 202 W/m² | - |
| 1777901722 | 13.89° C | 99% | 1022 hPa | 0 mm | - | 183 W/m² | - |
| 1777901419 | 13.33° C | 99% | 1021.6 hPa | 0 mm | - | 146 W/m² | - |
| 1777901117 | 12.78° C | 99% | 1021.6 hPa | 0 mm | - | 57 W/m² | - |
| 1777900814 | 12.78° C | 99% | 1021.6 hPa | 0 mm | - | 60 W/m² | - |
| 1777900511 | 12.22° C | 99% | 1021.5 hPa | 0 mm | - | 54 W/m² | - |
| 1777900209 | 11.67° C | 99% | 1021.7 hPa | 0 mm | - | 56 W/m² | - |
| 1777899904 | 11.11° C | 99% | 1021.5 hPa | 0 mm | - | 50 W/m² | - |
| 1777899601 | 11.11° C | 99% | 1021.6 hPa | 0 mm | - | 48 W/m² | - |
| 1777899299 | 10.56° C | 99% | 1021.7 hPa | 0 mm | - | 47 W/m² | - |
| 1777898996 | 10.56° C | 99% | 1021.7 hPa | 0 mm | - | 46 W/m² | - |
| 1777898693 | 10° C | 99% | 1021.6 hPa | 0 mm | - | 44 W/m² | - |
| 1777898390 | 10° C | 99% | 1021.6 hPa | 0 mm | - | 42 W/m² | - |
| 1777898088 | 10° C | 99% | 1021.8 hPa | 0 mm | - | 41 W/m² | - |
| 1777897784 | 9.44° C | 99% | 1021.7 hPa | 0 mm | - | 38 W/m² | - |
| 1777897481 | 9.44° C | 99% | 1021.5 hPa | 0 mm | - | 35 W/m² | - |
| 1777897177 | 9.44° C | 99% | 1021.4 hPa | 0 mm | - | 34 W/m² | - |
| 1777896873 | 9.44° C | 99% | 1021.4 hPa | 0 mm | - | 31 W/m² | - |
| 1777896570 | 8.89° C | 99% | 1021.5 hPa | 0 mm | - | 29 W/m² | - |
* Rain latest hour (hover to see other rain measurements)
** Current wind speed in m/s (hover to see current wind gust speed)